Temp_Advection
nan nan nan nan nan nan nan nan nan nan nan nan nan nan nan nan nan nan nan nan nan nan nan nan nan nan nan nan nan nan nan nan nan nan nan nan nan nan nan nan nan nan nan nan nan nan nan nan nan
nan 0 -0 -0 -0 0 -0 -0 -0 -0 -0 -0 0 0 -0 -1 -1 0 -0 -0 -0 0 -0 -0 0 -0 -0 0 0 -0 -0 0 0 0 -0 -0 0 0 -0 -0 -0 -0 0 0 -0 0 0 -0 nan
nan 0 -0 -0 -0 0 -0 0 -0 -0 0 0 -0 -0 -1 -0 0 -0 -0 -0 -0 -0 -0 -0 0 0 -0 -0 0 0 -0 -0 0 0 0 0 0 -0 -0 -0 0 0 -0 -0 0 -0 -0 0 nan
nan -0 -0 0 0 -0 0 -0 -0 -0 -0 0 0 -1 -0 0 -0 0 -0 -0 -0 -0 -0 -0 0 0 0 0 -0 -0 0 0 -0 0 0 0 0 -0 -0 -0 -0 -0 -0 0 0 0 0 -0 nan
nan 0 0 -0 0 0 0 -0 0 -0 -0 0 -0 -1 -1 -0 0 0 0 0 -0 -0 -0 -0 0 -0 0 0 0 0 0 0 0 -0 0 0 -0 0 0 -0 -0 0 0 -0 -0 0 0 0 nan
nan 0 -0 -0 0 0 0 0 0 -0 -0 -0 -0 -1 -1 -0 0 -0 -0 0 0 -0 -0 -0 0 -0 -0 0 0 -0 0 -0 0 0 -0 0 0 0 0 0 0 0 0 0 -0 -0 -0 -0 nan
nan -0 0 0 0 0 0 0 0 -0 -0 0 -0 -1 -1 -0 0 0 -0 0 0 -0 -0 -0 -0 -0 -0 0 0 0 0 0 -0 -0 -0 -0 -0 0 0 0 0 -0 -0 -0 -0 -0 -0 0 nan
nan -0 0 -0 0 0 0 -0 0 0 -0 -0 0 -0 -1 -0 -0 0 0 -0 0 -0 -0 -0 -0 -0 -0 0 0 0 0 0 0 0 0 0 0 0 0 -0 -0 -0 -0 0 -0 -0 0 0 nan
nan -0 -0 -0 -1 -0 0 -0 0 0 0 -0 0 0 -1 0 -0 -0 -0 -0 -0 0 -0 -0 -0 -0 -0 -0 0 0 0 0 0 0 -0 -0 -0 -0 0 0 0 0 0 0 -0 -0 -0 -0 nan
nan -0 -0 -0 -0 -0 -1 -0 -0 -0 -0 -0 -0 -0 -1 -0 -0 -0 -0 -0 -0 0 -0 -0 -0 -0 -0 -0 -0 0 0 0 0 0 0 0 0 -0 -0 0 0 0 0 0 -0 -0 -0 -0 nan
nan -0 0 0 -0 -0 -0 -0 -0 -0 -0 -0 -0 -1 -1 -0 -0 -0 -0 -0 -0 -0 0 -0 -0 0 0 0 -0 -0 -0 -0 -0 0 0 0 0 0 -0 -0 0 0 0 -0 -0 0 0 -0 nan
nan -0 -0 0 -0 1 0 -0 -0 0 -0 -0 -0 -1 -1 -1 -0 -0 -0 -0 -0 -0 -0 -0 -0 0 0 0 0 -0 -0 -0 -0 -0 0 0 0 0 0 -0 -0 0 -0 -0 0 0 -0 -0 nan
nan -0 -0 0 -0 1 0 -0 -0 -0 0 0 -0 -1 -1 -0 -0 -0 -0 -0 -0 -0 -0 -0 -0 -0 0 0 0 0 0 0 -0 -0 0 0 -0 -0 0 0 0 0 0 0 0 -0 0 0 nan
nan 0 0 -0 -1 0 1 0 -0 -0 -0 0 -0 -0 -0 -0 -0 -0 -0 -0 -0 -0 -0 -0 -0 -0 -0 0 0 0 -0 0 -0 -0 -0 0 0 -0 0 0 0 0 0 -0 -0 0 0 0 nan
nan 0 0 -0 -0 0 1 0 0 0 -0 -0 -0 -0 -0 -0 -0 -0 -0 -0 -0 -0 -0 -0 -0 -0 -0 -0 0 0 0 -0 -0 -0 0 -0 -0 -0 -0 0 0 -0 -0 0 0 0 0 0 nan
nan 0 -0 0 -1 -0 -0 1 0 1 1 -1 -0 -0 -0 -0 -0 -0 -0 -0 -0 -0 -0 -0 -0 -0 -0 -0 0 0 0 0 0 -0 0 0 -0 -0 0 0 -0 -0 0 0 0 0 0 0 nan
nan 0 -1 -1 0 -1 -0 0 -0 1 1 -0 -0 -0 -0 -0 -0 -0 -0 -0 -0 -0 -0 -0 0 -0 0 0 0 0 0 0 0 0 -0 -0 0 -0 0 0 0 0 0 0 0 0 0 0 nan
nan 0 -1 -1 -1 -0 -0 0 0 0 0 0 -0 -0 -0 -0 -0 -0 -0 -0 -0 -0 -0 -0 -0 0 -0 0 -0 -0 -0 -0 0 0 -0 -0 0 0 -0 0 -0 0 0 0 0 0 0 0 nan
nan -0 -0 -1 -2 -1 -0 -0 0 0 -1 -1 -0 -0 -0 -0 -0 -0 -0 -0 -0 -0 -0 -0 0 -0 -0 -0 -0 -0 -0 -0 -0 0 0 0 -0 0 -0 -0 -0 0 0 0 0 0 0 0 nan
nan -1 -0 -0 -0 -1 -1 -0 -0 -0 -1 0 0 -0 -0 0 -0 -0 -0 -0 -0 -0 -0 0 -0 -0 -0 -0 0 0 0 0 0 0 0 0 -0 0 0 -0 0 -0 -0 0 0 0 0 -0 nan
nan -0 -0 -1 -1 -0 -1 -0 -0 -0 -0 -0 -0 -0 0 -0 -0 -0 -0 -0 -0 -0 -0 -0 0 0 -0 -0 0 0 0 0 -0 -0 -0 -0 -0 0 0 -0 -0 -0 0 -0 -0 0 0 0 nan
nan 0 -0 -1 -1 -0 0 -0 0 0 -0 -2 -1 -0 -0 -0 -0 -0 -0 -0 -0 -0 -0 -0 -0 -0 0 -0 0 0 -0 -0 -0 -0 -0 0 -0 -0 0 -0 -0 -0 0 0 0 0 0 0 nan
nan 0 0 -0 -1 -2 -0 -0 -0 0 -1 -2 -1 -0 -0 -0 -0 -0 -0 -0 -0 0 -0 -0 -0 -0 -0 -0 -0 0 0 -0 -0 0 0 -0 -0 -0 -0 0 -0 0 0 -0 0 0 0 0 nan
nan 0 0 0 -0 -0 -1 -0 -1 -1 -1 -1 -0 0 0 -0 0 0 0 0 0 0 0 0 -0 -0 -0 0 0 0 0 -0 0 0 -0 -0 0 -0 -0 0 0 0 -0 -0 -0 -0 0 0 nan
nan 0 0 0 -0 -0 -0 0 -1 -1 -0 0 -0 0 0 0 0 0 1 1 1 1 0 -0 -0 0 0 0 0 -0 -0 -0 -0 -0 -0 -0 0 0 0 0 0 0 -0 0 -0 0 0 0 nan
nan 0 -0 -0 -1 -0 -0 -0 0 -0 -0 0 -0 0 -0 0 0 1 1 1 1 1 0 -0 0 1 0 0 -0 -0 -0 -0 -0 -0 -0 0 0 0 0 0 0 0 0 0 0 0 -0 0 nan
nan -1 -1 0 -0 0 -0 -0 -0 0 0 0 0 -0 -1 0 0 1 0 1 1 0 -0 0 1 0 0 -0 -0 -0 0 -0 0 0 -0 0 0 0 0 0 -0 -0 0 0 -0 0 0 0 nan
nan -0 0 -0 0 -0 0 -0 -0 -0 0 0 0 2 2 1 1 1 1 1 0 0 0 1 1 0 0 0 0 0 0 0 0 -0 -0 0 -0 -0 0 -0 -0 0 -0 -0 -0 0 0 0 nan
nan -0 -1 -0 0 -0 -0 0 -0 -0 -0 -0 1 1 1 2 2 2 2 1 1 1 0 1 1 0 -0 -0 -0 0 0 0 0 0 -0 -0 -0 -0 0 -0 0 0 -0 -0 0 0 0 0 nan
nan nan nan nan nan nan nan nan nan nan nan nan nan nan nan nan nan nan nan nan nan nan nan nan nan nan nan nan nan nan nan nan nan nan nan nan nan nan nan nan nan nan nan nan nan nan nan nan nan
Wind_Speed
4 1 1 3 4 2 9 7 14 12 15 11 12 6 11 11 8 11 21 14 16 15 12 10 7 5 7 8 8 10 9 8 9 10 10 10 12 14 15 17 17 18 17 17 18 17 16 16 15
3 1 3 3 2 11 8 11 15 11 15 20 9 8 6 12 12 21 17 17 17 15 13 9 9 8 8 8 10 11 10 10 10 11 11 11 13 14 16 16 17 17 16 18 18 18 18 16 16
3 3 3 3 2 9 11 13 12 17 25 11 7 9 7 7 20 15 19 19 16 13 11 10 10 10 9 9 9 9 10 11 11 12 11 12 13 14 15 16 17 18 17 15 15 15 15 16 15
1 1 4 3 11 7 15 14 17 22 15 5 13 10 10 12 10 18 19 17 15 12 10 10 10 10 10 9 9 10 11 12 12 12 12 13 14 14 15 16 16 16 15 15 15 15 13 13 15
1 4 2 4 8 10 12 15 20 19 13 13 1 8 16 10 16 21 19 17 14 12 8 8 9 9 9 9 10 11 12 13 13 13 13 14 14 15 15 15 16 15 17 16 16 16 15 15 14
3 3 2 6 9 9 9 13 20 19 14 11 16 21 13 13 21 19 17 15 14 12 10 8 10 9 9 10 11 12 13 14 14 15 14 14 14 15 15 16 16 17 18 18 18 17 16 15 15
3 2 1 5 10 8 10 12 14 14 11 10 11 14 13 20 18 18 16 14 13 12 10 10 7 9 10 11 12 12 14 15 15 15 15 15 15 15 14 15 16 18 19 18 18 18 18 16 15
4 4 5 3 11 8 12 13 12 13 9 11 14 8 17 25 21 19 15 14 13 11 10 10 9 10 9 8 10 12 14 15 15 14 15 14 15 14 14 16 15 16 16 15 17 18 18 18 17
3 2 3 7 11 10 17 15 14 8 14 7 5 16 28 26 22 20 16 14 13 12 10 9 9 9 11 11 11 12 14 14 14 13 15 15 12 12 13 15 14 14 14 15 17 18 16 17 18
4 3 4 3 10 16 22 16 14 14 13 12 19 23 30 26 23 21 17 15 13 12 11 9 11 11 10 10 11 12 12 10 11 12 12 12 12 14 12 15 14 15 15 14 14 14 14 13 11
1 2 0 7 15 22 20 15 13 15 11 17 25 32 30 26 22 19 17 14 13 13 11 11 12 11 13 12 12 11 10 10 11 12 11 12 12 12 11 12 11 11 13 8 8 7 7 8 9
5 1 3 10 18 21 18 14 12 13 7 15 25 32 29 26 23 19 17 15 13 12 12 12 12 12 12 12 12 13 12 11 10 11 13 13 12 12 12 10 10 9 7 8 9 7 9 8 9
7 0 7 17 18 17 14 12 14 6 9 21 31 28 26 23 20 18 16 14 14 12 13 13 13 11 12 14 13 13 12 11 12 12 13 12 11 12 10 10 8 7 7 8 8 8 8 9 8
3 4 16 20 21 14 13 17 12 11 20 27 28 25 23 21 20 18 16 15 14 13 14 14 13 12 13 13 14 12 12 13 13 12 12 12 8 9 7 7 7 6 6 6 7 7 8 8 6
9 13 13 19 19 15 16 10 10 17 23 25 25 23 21 19 18 18 17 15 15 14 15 15 14 14 14 14 13 12 11 12 12 10 10 10 8 8 7 5 6 6 6 7 7 8 9 8 7
8 15 14 15 17 7 1 13 11 14 23 24 23 21 19 17 18 17 16 15 15 15 16 15 14 14 14 12 14 11 11 10 9 6 6 10 8 8 7 6 6 4 5 6 6 7 8 8 7
3 10 12 14 11 8 5 4 17 18 17 24 22 21 19 19 18 17 16 15 16 16 16 15 14 14 13 13 11 9 9 9 9 7 6 7 7 8 7 6 5 4 4 5 6 6 6 6 5
5 9 17 15 12 12 8 5 10 21 18 24 24 23 21 22 20 19 17 15 15 15 15 15 13 13 13 11 11 9 7 8 8 7 7 7 6 8 6 4 6 6 4 5 5 6 4 4 3
15 9 10 12 18 13 13 7 10 18 18 23 25 23 22 21 21 19 18 16 15 15 15 15 14 13 11 9 11 10 9 8 7 7 9 7 7 6 7 5 5 4 5 6 4 4 4 4 3
12 16 9 10 15 9 13 10 6 12 18 25 26 26 24 22 22 20 19 18 17 16 16 16 15 14 12 10 12 9 9 8 8 7 7 6 7 7 5 9 5 6 5 4 4 5 4 4 5
9 10 12 16 12 8 14 7 5 4 10 18 27 26 24 25 23 22 21 20 18 18 17 16 16 15 13 12 12 13 10 9 8 6 6 6 6 8 8 10 8 7 8 3 4 3 4 3 4
10 2 4 16 12 4 5 2 4 1 8 18 23 25 25 23 23 22 22 21 21 19 18 17 16 15 15 15 10 11 11 7 8 6 7 6 8 9 9 8 10 9 7 6 4 2 4 5 3
4 3 5 11 8 13 8 3 4 4 11 17 25 28 28 28 26 24 23 23 21 20 18 17 16 16 15 16 12 10 8 9 6 8 8 7 7 8 9 10 10 8 6 8 6 4 4 2 4
0 7 6 6 8 6 12 5 7 8 17 13 24 26 28 29 27 25 23 21 21 20 18 17 17 18 17 15 14 12 8 7 8 9 6 5 5 6 9 10 11 9 8 6 5 6 4 4 3
11 10 6 7 7 2 13 8 7 21 14 19 23 29 28 25 27 26 24 21 22 23 20 19 17 18 18 16 13 12 11 9 7 7 6 8 9 8 9 12 11 10 10 7 7 8 6 5 3
19 15 8 8 11 7 8 6 5 7 10 8 13 28 28 27 26 26 24 28 26 22 21 23 17 15 16 16 14 13 12 9 9 6 7 6 8 6 9 11 10 12 11 8 8 6 7 7 3
15 17 16 11 2 10 12 6 4 5 5 7 16 24 30 30 27 25 24 22 23 30 25 16 19 16 15 15 16 16 12 11 9 10 8 7 5 7 7 10 9 11 14 11 9 8 10 10 8
12 15 16 10 12 12 7 10 6 11 9 4 8 20 25 25 25 23 23 21 21 27 26 19 19 24 18 14 15 15 12 12 10 10 10 9 7 9 9 9 9 9 10 12 11 9 11 11 8
12 12 14 16 15 10 12 12 5 6 10 10 8 7 7 16 19 19 20 20 18 26 32 28 23 18 17 20 18 17 16 11 10 11 10 10 9 10 11 10 11 11 11 10 11 11 10 11 11
18 17 18 13 17 11 12 3 4 6 10 12 11 11 9 10 13 16 16 17 24 24 31 32 31 20 27 19 18 17 18 19 12 12 12 12 12 10 8 10 11 11 10 11 13 11 10 9 11
Wind_Direction
140 111 312 289 239 154 97 90 118 121 133 137 120 123 77 25 16 92 141 143 142 135 146 137 133 133 118 112 108 120 118 116 115 109 108 104 96 94 90 89 91 98 95 100 96 93 94 91 89
132 45 311 286 245 136 93 119 123 127 126 136 127 125 90 73 93 122 133 139 136 137 131 136 133 123 112 99 96 110 108 108 108 111 111 104 101 99 95 99 96 101 97 99 95 84 86 91 88
139 48 353 11 263 112 118 127 120 128 141 138 109 61 46 87 123 120 141 137 138 129 131 134 121 115 110 103 99 102 115 106 113 114 112 106 104 103 110 108 99 99 100 92 88 85 80 80 82
239 51 37 23 125 61 123 130 131 138 141 142 134 89 82 124 117 133 135 137 137 124 129 123 117 114 109 107 109 108 110 119 114 116 115 111 109 110 112 107 98 93 92 93 86 84 83 83 79
186 106 90 145 103 116 122 129 143 149 130 133 144 98 114 126 127 132 133 135 135 124 119 119 115 112 110 104 110 107 113 117 120 120 114 108 112 110 113 111 106 93 89 92 86 82 81 82 81
193 90 194 173 133 123 129 146 153 162 160 123 109 115 106 130 136 136 134 135 128 128 126 112 111 110 111 111 111 113 114 119 119 114 116 114 114 113 119 111 103 94 92 90 85 82 80 82 85
249 200 143 173 142 153 144 161 161 164 163 171 148 124 127 145 145 140 138 135 130 124 126 112 99 102 106 108 112 115 117 123 122 118 120 115 111 108 110 113 107 103 98 92 84 80 77 76 78
280 174 124 208 169 153 149 165 155 159 129 136 144 154 153 152 147 145 141 137 131 126 124 125 114 118 105 103 114 119 120 124 122 119 119 114 110 105 106 118 113 109 96 91 89 80 78 74 73
268 266 154 198 169 157 155 163 161 145 148 150 156 151 150 151 149 146 147 143 136 131 125 124 124 115 111 108 107 118 120 120 112 115 114 97 112 115 106 132 111 110 103 93 85 79 76 73 68
250 222 180 260 179 153 158 157 147 159 140 132 122 132 145 151 153 154 153 149 145 140 133 138 126 114 118 126 120 125 109 124 125 126 116 115 118 115 119 115 111 107 103 92 82 75 69 72 69
207 276 93 164 147 159 150 148 156 159 169 156 146 148 152 155 157 158 154 151 149 144 144 137 137 126 115 116 121 122 123 118 123 120 119 119 107 108 114 109 106 102 91 77 72 65 74 82 91
254 240 240 150 144 154 151 146 155 169 120 161 156 154 155 160 161 161 158 154 153 149 145 144 142 130 119 112 122 127 125 123 123 129 116 109 112 115 112 112 112 103 103 83 76 70 96 92 78
232 334 166 147 136 134 144 154 135 128 137 149 151 154 158 161 162 162 158 157 155 150 150 149 146 135 133 122 125 131 123 125 127 118 121 117 119 117 117 116 118 105 94 90 73 65 77 78 82
318 188 152 150 131 141 156 136 129 131 137 143 152 157 160 163 165 164 162 159 157 155 153 153 147 141 135 138 129 127 128 129 127 123 123 120 123 123 116 112 110 103 96 83 79 80 85 89 86
248 143 147 134 146 144 133 151 132 143 149 152 157 158 159 162 165 167 165 161 159 156 156 155 149 143 137 133 121 126 119 134 134 135 125 132 111 142 124 134 118 102 92 77 71 73 82 84 81
209 155 149 159 146 111 339 159 148 157 160 160 161 161 162 163 163 165 166 161 161 158 158 156 156 154 147 149 133 136 138 143 152 146 132 134 128 135 114 114 138 123 95 87 94 94 93 90 89
258 183 170 161 173 120 64 118 148 175 185 167 167 165 166 163 163 164 168 163 165 164 161 161 158 158 157 159 154 147 155 146 155 148 143 147 131 134 130 128 152 117 102 111 109 99 95 89 89
154 193 162 161 144 128 166 175 178 170 201 181 173 172 171 170 171 169 169 167 169 168 169 168 162 170 164 169 166 167 165 160 157 152 162 158 153 147 127 149 144 120 108 113 123 112 80 83 71
141 263 182 160 149 146 173 150 188 173 207 205 181 179 180 177 175 177 178 176 176 179 181 181 180 189 182 174 172 175 169 175 165 157 165 166 173 163 155 163 148 141 142 149 105 93 59 59 45
195 215 147 89 145 152 158 156 159 195 211 202 192 182 182 179 177 183 186 187 187 187 191 194 193 199 192 196 174 182 184 183 179 179 183 176 186 191 179 160 158 150 158 137 125 123 103 64 65
201 214 160 149 116 64 139 150 187 102 254 209 200 192 192 189 192 190 192 195 194 196 196 200 200 202 202 193 196 195 196 192 195 195 188 192 184 180 177 181 173 173 150 184 138 116 122 81 52
181 167 147 140 170 145 230 207 272 237 217 227 206 208 198 207 199 195 198 198 200 200 199 200 201 204 205 202 203 207 208 211 181 208 205 203 192 192 196 189 191 176 184 188 184 152 116 103 71
38 194 178 177 150 134 193 209 161 242 258 216 206 203 204 204 199 197 200 202 202 202 199 197 201 204 199 206 196 206 217 215 219 197 211 180 198 200 199 192 183 192 175 204 189 173 146 95 90
209 190 159 197 167 198 168 171 171 183 243 220 212 207 208 202 201 202 203 204 204 204 199 196 202 208 208 212 215 213 217 223 212 197 202 198 208 211 204 199 195 190 185 182 188 198 190 163 125
217 199 166 201 203 241 165 209 140 204 203 236 203 206 205 206 205 205 205 203 204 200 199 196 202 212 214 212 216 222 221 224 233 243 196 212 201 191 235 201 204 200 195 194 197 211 206 186 187
204 207 209 185 221 171 142 226 137 142 165 211 208 201 203 206 203 203 209 211 206 198 193 207 208 215 220 220 219 224 225 232 238 231 239 194 235 211 216 205 206 204 204 208 214 215 204 224 211
188 219 229 280 272 236 165 162 163 169 184 204 200 202 203 204 206 207 204 200 197 195 198 193 214 219 223 225 228 229 232 229 227 235 216 251 206 226 215 203 209 211 212 216 226 213 225 220 230
257 212 212 222 236 230 171 196 208 190 190 186 197 189 194 199 202 204 204 199 206 202 197 218 228 232 237 230 235 238 237 245 247 243 241 226 240 232 219 205 206 217 219 225 233 229 233 233 234
196 230 217 238 232 236 228 201 82 146 170 172 149 131 154 185 192 196 195 197 195 202 203 218 222 217 233 234 243 242 227 232 244 239 237 242 240 250 228 228 226 222 229 233 229 223 225 242 240
214 214 205 225 216 246 290 89 91 123 146 163 164 154 151 163 171 182 192 190 195 200 205 206 214 233 240 248 249 244 233 231 235 241 238 240 250 250 233 239 233 235 231 237 242 242 238 241 239
Height
1525 1526 1526 1526 1523 1510 1522 1531 1529 1534 1536 1540 1542 1541 1543 1546 1542 1557 1566 1568 1571 1573 1574 1573 1574 1574 1575 1576 1576 1577 1577 1577 1578 1579 1579 1580 1580 1581 1581 1581 1583 1583 1584 1584 1584 1583 1584 1583 1582
1528 1528 1528 1525 1521 1517 1531 1526 1531 1532 1538 1543 1545 1544 1544 1553 1556 1561 1567 1570 1572 1574 1577 1577 1575 1576 1576 1576 1577 1578 1578 1579 1580 1581 1582 1583 1583 1583 1583 1585 1586 1587 1587 1587 1587 1586 1586 1586 1585
1528 1527 1528 1529 1524 1519 1529 1529 1532 1537 1542 1543 1545 1546 1549 1559 1562 1565 1569 1572 1575 1576 1578 1576 1577 1578 1577 1578 1578 1579 1580 1582 1583 1583 1584 1585 1585 1586 1588 1589 1588 1588 1589 1590 1589 1589 1588 1589 1588
1529 1531 1532 1534 1521 1527 1522 1528 1533 1539 1545 1546 1546 1551 1559 1562 1565 1568 1571 1574 1577 1579 1581 1578 1578 1579 1581 1580 1580 1581 1582 1583 1584 1585 1586 1587 1588 1589 1591 1591 1590 1591 1591 1592 1592 1591 1591 1591 1590
1530 1531 1532 1535 1525 1527 1526 1532 1536 1540 1544 1546 1546 1553 1560 1566 1567 1570 1573 1576 1579 1581 1582 1582 1580 1582 1582 1582 1582 1583 1584 1585 1586 1587 1589 1590 1591 1592 1592 1593 1595 1594 1594 1594 1594 1594 1594 1593 1594
1530 1530 1533 1527 1525 1529 1532 1534 1536 1541 1545 1549 1551 1555 1563 1568 1570 1573 1575 1578 1580 1583 1584 1584 1582 1582 1584 1584 1585 1585 1586 1587 1589 1590 1591 1593 1593 1594 1595 1595 1595 1597 1596 1597 1597 1597 1597 1597 1597
1529 1528 1523 1526 1528 1531 1532 1536 1536 1538 1543 1547 1551 1553 1565 1570 1572 1575 1577 1579 1582 1584 1585 1587 1587 1585 1585 1586 1587 1588 1588 1590 1591 1593 1594 1595 1596 1596 1597 1598 1599 1600 1600 1600 1601 1601 1601 1600 1600
1527 1528 1528 1527 1532 1528 1532 1536 1537 1540 1543 1549 1551 1554 1563 1568 1573 1576 1579 1581 1583 1586 1586 1588 1589 1590 1591 1590 1589 1590 1591 1591 1593 1594 1596 1598 1598 1600 1601 1602 1602 1603 1603 1604 1604 1603 1603 1603 1603
1527 1525 1531 1526 1529 1526 1533 1534 1539 1542 1547 1549 1552 1552 1562 1569 1573 1577 1580 1582 1585 1587 1589 1590 1591 1591 1590 1591 1591 1592 1594 1594 1596 1597 1599 1601 1603 1604 1604 1604 1605 1605 1606 1606 1606 1605 1606 1605 1605
1525 1522 1523 1514 1518 1522 1529 1532 1538 1543 1547 1550 1552 1558 1565 1570 1574 1577 1580 1583 1586 1588 1590 1591 1592 1593 1594 1595 1595 1597 1598 1601 1601 1602 1602 1604 1605 1606 1607 1606 1607 1608 1608 1609 1608 1608 1608 1609 1611
1521 1522 1516 1515 1518 1524 1528 1534 1538 1540 1544 1549 1552 1559 1565 1570 1574 1578 1581 1584 1587 1588 1590 1592 1593 1594 1595 1596 1599 1600 1601 1602 1602 1603 1605 1606 1608 1609 1610 1610 1611 1611 1611 1613 1612 1612 1613 1611 1614
1519 1517 1517 1515 1519 1525 1530 1535 1537 1541 1543 1548 1554 1559 1565 1570 1574 1578 1581 1584 1587 1589 1591 1593 1594 1594 1597 1599 1601 1602 1603 1605 1606 1605 1605 1607 1610 1611 1612 1613 1614 1615 1615 1614 1615 1615 1613 1613 1614
1519 1516 1517 1518 1524 1531 1533 1535 1539 1544 1547 1549 1556 1563 1567 1571 1575 1579 1582 1585 1588 1590 1592 1594 1594 1596 1598 1600 1602 1604 1605 1607 1607 1608 1608 1610 1611 1612 1614 1615 1617 1617 1618 1618 1617 1617 1616 1616 1617
1518 1517 1517 1520 1529 1534 1534 1537 1539 1547 1549 1554 1559 1563 1568 1571 1575 1579 1582 1585 1588 1590 1593 1594 1596 1597 1600 1601 1603 1605 1607 1608 1610 1611 1610 1611 1613 1613 1615 1617 1619 1619 1619 1619 1619 1618 1619 1619 1619
1520 1517 1520 1524 1532 1535 1540 1543 1544 1549 1552 1557 1560 1564 1568 1572 1576 1579 1582 1585 1588 1591 1593 1595 1597 1599 1601 1602 1604 1608 1609 1611 1612 1612 1611 1612 1614 1614 1616 1618 1619 1619 1619 1619 1620 1620 1620 1620 1621
1518 1514 1527 1529 1531 1542 1544 1546 1550 1552 1553 1557 1560 1565 1569 1573 1576 1580 1583 1586 1589 1591 1593 1596 1599 1601 1602 1604 1606 1610 1611 1613 1613 1614 1614 1614 1615 1616 1618 1620 1621 1620 1620 1621 1622 1622 1622 1622 1622
1525 1521 1518 1529 1532 1539 1547 1550 1549 1554 1555 1555 1560 1564 1569 1573 1577 1580 1584 1587 1589 1592 1594 1597 1599 1602 1603 1604 1608 1610 1610 1613 1614 1615 1616 1615 1616 1617 1619 1620 1620 1620 1621 1622 1623 1623 1623 1624 1623
1529 1514 1505 1518 1533 1539 1549 1555 1550 1554 1557 1554 1558 1562 1567 1571 1575 1580 1584 1587 1590 1592 1595 1598 1600 1601 1602 1604 1606 1610 1612 1613 1614 1615 1616 1616 1617 1617 1620 1620 1620 1621 1623 1623 1623 1623 1624 1624 1624
1515 1524 1508 1511 1528 1537 1546 1550 1550 1555 1558 1552 1555 1560 1565 1570 1575 1579 1583 1586 1589 1592 1595 1597 1600 1601 1602 1605 1608 1611 1612 1613 1614 1615 1614 1615 1616 1617 1618 1620 1620 1621 1623 1622 1623 1624 1624 1625 1624
1502 1507 1505 1510 1520 1529 1547 1551 1552 1553 1555 1553 1553 1557 1563 1568 1572 1578 1582 1585 1588 1591 1594 1597 1599 1600 1602 1605 1608 1610 1612 1613 1614 1614 1613 1615 1616 1616 1617 1619 1621 1622 1623 1623 1623 1624 1625 1625 1624
1501 1499 1503 1514 1530 1533 1541 1553 1553 1553 1553 1556 1554 1556 1561 1567 1569 1575 1579 1583 1586 1590 1592 1595 1597 1600 1602 1605 1606 1607 1609 1611 1611 1612 1613 1614 1615 1616 1617 1618 1621 1621 1623 1625 1624 1625 1624 1625 1625
1505 1502 1503 1515 1522 1547 1540 1561 1548 1550 1552 1553 1553 1552 1558 1562 1567 1571 1577 1580 1584 1588 1591 1594 1596 1598 1601 1603 1607 1607 1608 1610 1611 1613 1614 1614 1614 1615 1617 1617 1618 1620 1623 1624 1624 1625 1625 1625 1626
1503 1504 1504 1507 1512 1532 1541 1539 1544 1548 1546 1545 1547 1549 1552 1558 1562 1568 1573 1577 1582 1586 1589 1592 1594 1597 1600 1602 1606 1607 1608 1609 1611 1612 1611 1615 1613 1614 1616 1616 1618 1619 1622 1622 1623 1624 1625 1626 1627
1510 1507 1508 1505 1508 1528 1526 1530 1545 1541 1537 1533 1542 1545 1548 1552 1558 1565 1570 1575 1580 1584 1588 1591 1592 1595 1598 1601 1603 1605 1608 1609 1609 1610 1611 1614 1615 1614 1614 1615 1617 1618 1620 1621 1623 1624 1625 1626 1626
1513 1509 1528 1530 1522 1518 1504 1524 1518 1526 1527 1528 1534 1540 1546 1549 1554 1560 1567 1572 1577 1581 1585 1588 1590 1593 1596 1599 1602 1604 1607 1608 1609 1610 1610 1614 1613 1614 1614 1614 1616 1618 1619 1620 1621 1623 1624 1625 1627
1512 1508 1515 1544 1524 1511 1515 1525 1513 1514 1525 1527 1528 1535 1541 1547 1551 1556 1561 1566 1571 1577 1581 1584 1588 1592 1595 1598 1600 1603 1605 1607 1607 1610 1611 1611 1613 1613 1614 1613 1615 1616 1618 1619 1620 1623 1624 1625 1625
1506 1515 1501 1509 1505 1502 1504 1507 1517 1518 1521 1523 1526 1530 1534 1540 1547 1553 1559 1564 1567 1572 1576 1581 1587 1591 1594 1597 1598 1600 1603 1605 1608 1608 1609 1610 1611 1613 1612 1613 1614 1615 1616 1618 1619 1622 1622 1623 1624
1497 1500 1511 1509 1524 1523 1502 1506 1508 1517 1516 1525 1522 1525 1529 1537 1544 1550 1556 1560 1562 1568 1572 1578 1586 1587 1591 1594 1597 1599 1602 1603 1605 1607 1608 1609 1610 1610 1611 1612 1614 1615 1615 1617 1617 1620 1620 1620 1622
1504 1500 1497 1493 1497 1505 1512 1504 1497 1504 1514 1524 1528 1531 1532 1535 1542 1549 1554 1558 1562 1564 1568 1570 1579 1584 1586 1590 1593 1596 1599 1602 1602 1604 1606 1606 1607 1608 1609 1610 1611 1613 1613 1615 1615 1617 1618 1619 1620
1488 1493 1495 1502 1505 1497 1493 1498 1506 1509 1516 1524 1531 1534 1537 1540 1542 1546 1551 1555 1558 1561 1565 1569 1573 1576 1581 1586 1589 1591 1594 1596 1600 1601 1603 1604 1605 1607 1608 1609 1610 1611 1612 1613 1613 1614 1616 1616 1617